Location: Ceske Budejovice
(48.9830°N, 14.4670°E)
Time: 17:39:09
(UTC+02:00)

ISS - Pass Details

Date: 27 April 2024
Orbit: 416 x 420 km, 51.6° (Epoch: 13 May)

Event Time Altitude Azimuth Distance (km) Brightness Sun altitude
Exits shadow 03:05:27 30° 115° (ESE) 805 -2.3 -21.2°
Drops below altitude 10° 03:07:47 10° 80° (E) 1,533 -0.3 -21.0°
Sets 03:09:59 0° 71° (ENE) 2,395 0.9 -20.8°
